This demonstration page uses our WeatherBlox Daily Observations layout. Learn more.

Hourly Observations for August 16, 2017

Temp ( °F °C ) Dew Point ( °F °C ) Humidity (%) Winds ( mph kmh ) Pressure ( in mb ) Visibility ( mi km ) Precip ( " mm )
12:14 am 00:14 Partly Cloudy 69 20.6 66 18.9 90 90 E 14 22 29.83 1010 10 16.0934 0 0
12:54 am 00:54 Mostly Cloudy with Light Rain 70 21.1 65 18.3 84 84 E 14 22 29.82 1010 8 12.87472 0 0.0254
1:08 am 01:08 Mostly Cloudy with Light Thunderstorms 69 20.6 65 18.3 87 87 E 13 20 29.8 1009 4 6.43736 0.04 1.016
1:29 am 01:29 Mostly Cloudy with Thunderstorms 69 20.6 65 18.3 87 87 E 13 20 29.8 1009 10 16.0934 0.15 3.81
1:52 am 01:52 Cloudy with Nearby Thunderstorms 70 21 66 19 88 88 E 8 13 29.8 1009 10 16.0934 0.15 3.81
1:54 am 01:54 Cloudy with Nearby Thunderstorms 69 20.6 66 18.9 90 90 VRB 6 9 29.79 1009 10 16.0934 0.15 3.81
2:02 am 02:02 Mostly Cloudy 69 20.6 66 18.9 90 90 VRB 3 6 29.8 1009 10 16.0934 0 0.0254
2:15 am 02:15 Mostly Cloudy with Nearby Thunderstorms 69 20.6 66 18.9 90 90 ESE 3 6 29.8 1009 10 16.0934 0 0.0254
2:54 am 02:54 Partly Cloudy 70 21.1 68 20 93 93 E 7 11 29.76 1008 10 16.0934 0 0.0254
3:54 am 03:54 Partly Cloudy 71 21.7 69 20.6 94 94 E 5 7 29.75 1007 10 16.0934 0 0
4:54 am 04:54 Mostly Cloudy with Light Thunderstorms 73 22.8 70 21.1 90 90 SE 10 17 29.72 1007 10 16.0934 0 0.0254
5:04 am 05:04 Cloudy with Light Thunderstorms 73 22.8 70 21.1 90 90 SE 10 17 29.68 1005 2 3.21868 0.15 3.81
5:13 am 05:13 Cloudy with Light Thunderstorms 73 22.8 70 21.1 90 90 SSE 10 17 29.68 1005 9 14.48406 0.15 3.81
5:22 am 05:22 Mostly Cloudy with Light Rain 73 22.8 70 21.1 90 90 SE 8 13 29.68 1005 8 12.87472 0.16 4.064
5:30 am 05:30 Cloudy with Nearby Thunderstorms 73 22.8 70 21.1 90 90 SE 9 15 29.68 1005 10 16.0934 0.16 4.064
5:54 am 05:54 Cloudy 73 22.8 70 21.1 90 90 SE 9 15 29.72 1006 10 16.0934 0.16 4.064
6:11 am 06:11 Cloudy 73 22.8 70 21.1 90 90 SE 7 11 29.71 1006 10 16.0934 0 0
6:54 am 06:54 Cloudy 73 22.8 71 21.7 94 94 SE 6 9 29.73 1007 10 16.0934 0 0
7:29 am 07:29 Cloudy with Nearby Thunderstorms 73 22.8 70 21.1 90 90 W 15 24 29.71 1006 8 12.87472 0 0.0254
7:38 am 07:38 Cloudy with Light Rain 72 22.2 70 21.1 94 94 WNW 12 19 29.71 1006 7 11.26538 0.01 0.254
7:54 am 07:54 Cloudy with Light Rain 71 21.7 69 20.6 94 94 W 8 13 29.75 1008 10 16.0934 0.02 0.508
8:04 am 08:04 Cloudy with Nearby Thunderstorms 70 21.1 68 20 93 93 SSW 14 22 29.8 1009 10 16.0934 0 0.0254
8:21 am 08:21 Cloudy with Thunderstorms 70 21.1 67 19.4 90 90 WNW 8 13 29.77 1008 4 6.43736 0.03 0.762
8:29 am 08:29 Cloudy with Light Thunderstorms 70 21.1 68 20 93 93 WNW 9 15 29.77 1008 4 6.43736 0.04 1.016
8:38 am 08:38 Cloudy with Light Rain 69 20.6 67 19.4 93 93 WSW 5 7 29.77 1008 4 6.43736 0.06 1.524
8:54 am 08:54 Mostly Cloudy with Light Rain 69 20.6 67 19.4 93 93 E 5 7 29.74 1007 9 14.48406 0.07 1.778
9:54 am 09:54 Partly Cloudy 70 21.1 67 19.4 90 90 ESE 6 9 29.68 1005 10 16.0934 0.02 0.508
10:10 am 10:10 Mostly Cloudy 70 21.1 67 19.4 90 90 WSW 24 39 29.77 1008 10 16.0934 0 0
10:54 am 10:54 Partly Cloudy 73 22.8 66 18.9 79 79 W 9 15 29.77 1008 10 16.0934 0 0
11:54 am 11:54 Sunny 77 25 65 18.3 66 66 W 16 26 29.78 1008 10 16.0934 0 0
12:54 pm 12:54 Partly Cloudy 80 26.7 66 18.9 62 62 WSW 15 24 29.78 1008 10 16.0934 0 0
1:54 pm 13:54 Partly Cloudy 79 26.1 64 17.8 60 60 W 14 22 29.77 1008 10 16.0934 0 0
2:54 pm 14:54 Partly Cloudy 81 27.2 65 18.3 58 58 W 17 28 29.75 1008 10 16.0934 0 0
3:54 pm 15:54 Partly Cloudy 82 27.8 64 17.8 55 55 W 17 28 29.75 1008 10 16.0934 0 0
4:54 pm 16:54 Mostly Cloudy 81 27.2 65 18.3 58 58 NW 10 17 29.76 1008 10 16.0934 0 0
5:54 pm 17:54 Partly Cloudy 81 27.2 65 18.3 58 58 WNW 13 20 29.77 1008 10 16.0934 0 0
6:54 pm 18:54 Sunny 79 26.1 65 18.3 62 62 WNW 9 15 29.76 1008 10 16.0934 0 0
7:54 pm 19:54 Mostly Cloudy 76 24.4 66 18.9 72 72 N 10 17 29.78 1008 10 16.0934 0 0
8:54 pm 20:54 Mostly Clear 73 22.8 64 17.8 74 74 NNW 12 19 29.81 1009 10 16.0934 0 0
9:54 pm 21:54 Mostly Cloudy 71 21.7 63 17.2 76 76 WNW 10 17 29.85 1011 10 16.0934 0 0
10:54 pm 22:54 Partly Cloudy 69 20.6 62 16.7 78 78 NW 8 13 29.86 1011 10 16.0934 0 0
11:54 pm 23:54 Clear 67 19.4 61 16.1 81 81 WNW 7 11 29.85 1011 10 16.0934 0 0

Powered by AerisWeather